Location: Amanico Ergina Village
(37.7824°N, 122.4366°W)
Time: 21:12:08
(UTC+00:00)

METEOR-M - Pass Details

Date: 29 October 2020
Orbit: 815 x 820 km, 98.5° (Epoch: 24 November)

Event Time Altitude Azimuth Distance (km) Brightness Sun altitude
Rises 13:25:33 0° 6° (N) 3,350 7.3 -13.8°
Reaches altitude 10° 13:27:59 10° 0° (N) 2,414 6.5 -13.3°
Maximum altitude 13:33:03 47° 289° (WNW) 1,075 4.3 -12.3°
Drops below altitude 10° 13:38:07 10° 216° (SW) 2,398 6.3 -11.3°
Sets 13:40:31 0° 211° (SSW) 3,326 7.1 -10.9°
